This demonstration page uses our WeatherBlox Daily Observations layout. Learn more.

Left ArrowRight Arrow

39.01783, -85.05884

Hourly Observations for July 16, 2020

Temp ( °F °C ) Dew Point ( °F °C ) Humidity (%) Winds ( mph kmh ) Pressure ( in mb ) Visibility ( mi km ) Precip ( " mm )
12:52 am 00:52 Cloudy 79 26.1 64 17.8 60 60 S 8 13 29.96 1015 10 16 0.00 0.00
1:52 am 01:52 Cloudy 78 25.6 64 17.8 62 62 S 12 19 29.92 1013 10 16 0.00 0.00
2:52 am 02:52 Cloudy 80 26.7 65 18.3 60 60 S 13 20 29.91 1013 10 16 0.00 0.00
3:52 am 03:52 Cloudy 79 26.1 65 18.3 62 62 S 8 13 29.88 1012 10 16 0.00 0.00
4:52 am 04:52 Cloudy 79 26.1 65 18.3 62 62 SSW 8 13 29.90 1012 10 16 0.00 0.00
5:52 am 05:52 Mostly Cloudy 77 25 66 18.9 69 69 S 9 15 29.90 1013 10 16 0.00 0.00
6:52 am 06:52 Mostly Cloudy 77 25 66 18.9 69 69 S 8 13 29.92 1013 10 16 0.00 0.00
7:52 am 07:52 Cloudy 79 26.1 68 20 69 69 S 12 19 29.95 1014 10 16 0.00 0.00
8:10 am 08:10 Cloudy 78 25.6 68 20 71 71 SSW 9 15 29.95 1014 10 16 0.00 0.00
8:52 am 08:52 Cloudy 78 25.6 68 20 71 71 SSW 10 17 29.97 1015 10 16 0.00 0.00
9:52 am 09:52 Cloudy 77 25 70 21.1 79 79 S 10 17 29.98 1015 9 14 0.00 0.00
10:35 am 10:35 Mostly Cloudy 78 25.6 71 21.7 79 79 S 12 19 29.99 1016 10 16 0.00 0.00
10:52 am 10:52 Mostly Cloudy 80 26.7 71 21.7 74 74 S 15 24 30.00 1016 10 16 0.00 0.00
11:17 am 11:17 Cloudy 80 26.7 71 21.7 74 74 SSW 12 19 30.00 1016 10 16 0.00 0.00
11:52 am 11:52 Mostly Cloudy 82 27.8 71 21.7 69 69 SW 15 24 30.01 1016 10 16 0.00 0.00
12:03 pm 12:03 Mostly Cloudy 84 28.9 70 21.1 63 63 SW 14 22 29.99 1016 10 16 0.00 0.00
12:52 pm 12:52 Mostly Cloudy 83 28.3 71 21.7 67 67 WSW 10 17 30.01 1016 10 16 0.00 0.00
1:52 pm 13:52 Mostly Cloudy 85 29.4 69 20.6 59 59 SW 16 26 30.01 1016 10 16 0.00 0.00
2:52 pm 14:52 Mostly Cloudy 87 30.6 69 20.6 55 55 WSW 10 17 30.01 1016 10 16 0.00 0.00
3:52 pm 15:52 Mostly Cloudy 87 30.6 69 20.6 55 55 W 16 26 30.01 1016 10 16 0.00 0.00
4:52 pm 16:52 Mostly Cloudy 87 30.6 70 21.1 57 57 WNW 16 26 30.01 1016 10 16 0.00 0.00
5:52 pm 17:52 Mostly Cloudy 85 29.4 68 20 57 57 W 16 26 30.03 1017 10 16 0.00 0.00
6:52 pm 18:52 Mostly Cloudy 84 28.9 67 19.4 57 57 WNW 12 19 30.03 1017 10 16 0.00 0.00
7:52 pm 19:52 Mostly Cloudy 82 27.8 69 20.6 65 65 NW 12 19 30.04 1017 10 16 0.00 0.00
8:52 pm 20:52 Mostly Cloudy 78 25.6 69 20.6 74 74 WNW 10 17 30.06 1018 10 16 0.00 0.00
9:52 pm 21:52 Mostly Cloudy 76 24.4 68 20 77 77 NW 6 9 30.07 1018 10 16 0.00 0.00
10:52 pm 22:52 Clear 74 23.3 67 19.4 79 79 WNW 6 9 30.09 1019 10 16 0.00 0.00
11:52 pm 23:52 Clear 70 21.1 67 19.4 90 90 W 5 7 30.09 1019 10 16 0.00 0.00

Powered by AerisWeather